Location: Karcze
(52.0945°N, 22.4786°E)
Time: 12:44:19
(UTC+00:00)

Cosmos 1818 - Pass Details

Date: 14 July 2020
Orbit: 777 x 796 km, 65.0° (Epoch: 07 August)

Event Time Altitude Azimuth Distance (km) Brightness Sun altitude
Rises 01:15:45 0° 317° (NW) 3,310 6.9 -8.5°
Reaches altitude 10° 01:18:11 10° 316° (NW) 2,377 6.2 -8.2°
Maximum altitude 01:23:39 76° 232° (SW) 824 3.6 -7.7°
Drops below altitude 10° 01:29:05 10° 147° (SSE) 2,361 5.9 -7.2°
Sets 01:31:29 0° 146° (SE) 3,285 6.6 -6.9°
